Flag for Poland Weather past 2 weeks in Toruń, Poland

Now
41 °F

Fog.


Feels Like: 41 °F
Forecast: 35 / 49 °F
Wind: 2 mph from Southeast

Location: Torun

Current Time: Feb 27, 2015 at 11:09:44 PM

Latest Report: Feb 27, 2015 at 9:00 PM


Visibility: 2 mi

Pressure: 30.00 "Hg

Humidity: 91%

Dew point: 39 °F

Location of ToruńLocation

Historic Weather in Toruń — Graph

°F

Toruń temperature yesterday

Maximum temperature yesterday: 45 °F (at 2:00 PM)
Minimum temperature yesterday: 33 °F (at 7:00 AM)
Average temperature yesterday: 39 °F

Past Weeks' High & Low Weather Summary

 TemperatureHumidityPressure
High47 °F (Feb 21, 2:00 PM)100% (Feb 23, 12:00 AM)30.66 "Hg (Feb 23, 12:00 AM)
Low22 °F (Feb 18, 3:00 AM)44% (Feb 16, 4:00 PM)29.47 "Hg (Feb 21, 2:00 PM)
Average35 °F79%30.10 "Hg
* Reported Feb 12 9:00 PM — Feb 27 9:00 PM, Toruń, Weather by CustomWeather, © 2015

Note: Actual official high and low records may vary slightly from our data, if they occured in-between our weather recording intervals... More about our weather records

Advertising

Toruń weather history for previous 24 hours

 ConditionsComfort  
Time TempWeatherWind HumidityBarometerVisibility
9:00 PM
Fri, Feb 27
41 °FFog.2 mph91%30.00 "Hg2 mi
8:00 PM41 °FFog.1 mph91%30.00 "Hg2 mi
7:00 PM41 °FFog.2 mph90%29.99 "Hg2 mi
6:00 PM42 °FFog.2 mph88%29.99 "Hg2 mi
5:00 PM43 °FFog.2 mph86%29.98 "Hg2 mi
4:00 PM44 °FFog.2 mph83%29.98 "Hg3 mi
3:00 PM44 °FFog.2 mph82%29.98 "Hg4 mi
2:00 PM43 °FFog.3 mph86%29.98 "Hg3 mi
1:00 PM42 °FFog.3 mph87%29.98 "Hg3 mi
12:00 PM42 °FFog.3 mph89%29.99 "Hg3 mi
11:00 AM41 °FFog.3 mph90%30.00 "Hg2 mi
10:00 AM41 °FFog.3 mph90%30.01 "Hg2 mi
9:00 AM40 °FFog.3 mph92%30.01 "Hg2 mi
8:00 AM40 °FFog.2 mph91%30.02 "Hg2 mi
7:00 AM39 °FFog.1 mph91%30.02 "Hg3 mi
6:00 AM39 °FFog.2 mph91%30.02 "Hg3 mi
5:00 AM38 °FFog.2 mph91%30.02 "Hg2 mi
4:00 AM38 °FFog.2 mph91%30.03 "Hg2 mi
2:00 AM37 °FFog.1 mph93%30.07 "Hg2 mi
1:00 AM36 °FFog.1 mph93%30.09 "Hg2 mi
12:00 AM36 °FFog.2 mph92%30.10 "Hg2 mi
11:00 PM
Thu, Feb 26
38 °FFog.2 mph90%30.11 "Hg2 mi
Weather by CustomWeather, © 2015

See weather overviewHow to use our weather pages